Location: St. Louis
(38.6270°N, 90.1994°W)
Time: 16:11:43
(UTC-05:00)

ISS - Pass Details

Date: 08 April 2014
Orbit: 401 x 404 km, 51.6° (Epoch: 23 July)

Event Time Altitude Azimuth Distance (km) Brightness Sun altitude
Rises 20:10:09 0° 227° (SW) 2,329 1.0 -8.3°
Reaches altitude 10° 20:12:13 10° 226° (SW) 1,471 -0.1 -8.7°
Maximum altitude 20:15:31 79° 141° (SE) 422 -3.4 -9.3°
Drops below altitude 10° 20:18:50 10° 53° (NE) 1,478 -0.8 -9.9°
Enters shadow 20:20:19 - 53° (NE) 2,089 -0.1 -10.2°
